Private Wetterstation Sandau
Wetterdaten: Samstag, 17.11.2012
Datum Zeit Temp. A. Feuchte A. Luftdruck Regen Wind Richtung Richtung Taupunkt Windchill
17.11.2012 00:01 1,1 C 89 % 1018,9 hPa 0,0 l/m 4,0 km/h (1 Bft) SO 135 -0,5 C 1,1 C
17.11.2012 00:06 1,1 C 89 % 1018,7 hPa 0,0 l/m 4,3 km/h (1 Bft) SO 135 -0,5 C 1,1 C
17.11.2012 00:11 1,1 C 89 % 1018,7 hPa 0,0 l/m 2,5 km/h (1 Bft) S-SO 157 -0,5 C 1,1 C
17.11.2012 00:16 1,1 C 89 % 1018,7 hPa 0,0 l/m 2,9 km/h (1 Bft) SO 135 -0,5 C 1,1 C
17.11.2012 00:21 1,0 C 89 % 1018,6 hPa 0,0 l/m 4,0 km/h (1 Bft) S-SO 157 -0,6 C 1,0 C
17.11.2012 00:26 1,1 C 89 % 1018,6 hPa 0,0 l/m 0,0 km/h (0 Bft) S-SO 157 -0,5 C 1,1 C
17.11.2012 00:31 1,0 C 89 % 1018,6 hPa 0,0 l/m 1,1 km/h (1 Bft) S-SO 157 -0,6 C 1,0 C
17.11.2012 00:36 1,1 C 89 % 1018,5 hPa 0,0 l/m 0,0 km/h (0 Bft) SO 135 -0,5 C 1,1 C
17.11.2012 00:41 1,1 C 89 % 1018,4 hPa 0,0 l/m 1,8 km/h (1 Bft) SO 135 -0,5 C 1,1 C
17.11.2012 00:46 1,1 C 89 % 1018,3 hPa 0,0 l/m 1,1 km/h (1 Bft) SO 135 -0,5 C 1,1 C
17.11.2012 00:51 1,1 C 89 % 1018,3 hPa 0,0 l/m 4,7 km/h (1 Bft) SO 135 -0,5 C -0,2 C
17.11.2012 00:56 1,1 C 89 % 1018,4 hPa 0,0 l/m 2,2 km/h (1 Bft) SO 135 -0,5 C 1,1 C
17.11.2012 01:01 1,1 C 89 % 1018,3 hPa 0,0 l/m 0,0 km/h (0 Bft) SO 135 -0,5 C 1,1 C
17.11.2012 01:06 1,1 C 89 % 1018,0 hPa 0,0 l/m 3,6 km/h (1 Bft) SO 135 -0,5 C 1,1 C
17.11.2012 01:11 1,2 C 89 % 1018,1 hPa 0,0 l/m 3,2 km/h (1 Bft) S-SO 157 -0,4 C 1,2 C
17.11.2012 01:16 1,2 C 90 % 1018,1 hPa 0,0 l/m 0,0 km/h (0 Bft) S-SO 157 -0,3 C 1,2 C
17.11.2012 01:21 1,2 C 90 % 1018,0 hPa 0,0 l/m 0,0 km/h (0 Bft) S-SO 157 -0,3 C 1,2 C
17.11.2012 01:26 1,2 C 90 % 1018,0 hPa 0,0 l/m 3,2 km/h (1 Bft) S-SO 157 -0,3 C 1,2 C
17.11.2012 01:31 1,3 C 90 % 1018,1 hPa 0,0 l/m 2,2 km/h (1 Bft) SO 135 -0,2 C 1,3 C
17.11.2012 01:36 1,3 C 90 % 1018,1 hPa 0,0 l/m 2,2 km/h (1 Bft) SO 135 -0,2 C 1,3 C
17.11.2012 01:41 1,3 C 90 % 1017,9 hPa 0,0 l/m 1,1 km/h (1 Bft) S 180 -0,2 C 1,3 C
17.11.2012 01:46 1,3 C 90 % 1017,9 hPa 0,0 l/m 2,2 km/h (1 Bft) S-SO 157 -0,2 C 1,3 C
17.11.2012 01:51 1,3 C 90 % 1017,9 hPa 0,0 l/m 2,2 km/h (1 Bft) SO 135 -0,2 C 1,3 C
17.11.2012 01:56 1,3 C 90 % 1017,9 hPa 0,0 l/m 2,2 km/h (1 Bft) SO 135 -0,2 C 1,3 C
17.11.2012 02:01 1,3 C 90 % 1017,9 hPa 0,0 l/m 2,9 km/h (1 Bft) SO 135 -0,2 C 1,3 C
17.11.2012 02:06 1,3 C 90 % 1017,8 hPa 0,0 l/m 1,4 km/h (1 Bft) SO 135 -0,2 C 1,3 C
17.11.2012 02:11 1,3 C 90 % 1017,9 hPa 0,0 l/m 2,2 km/h (1 Bft) SO 135 -0,2 C 1,3 C
17.11.2012 02:16 1,3 C 90 % 1017,9 hPa 0,0 l/m 1,4 km/h (1 Bft) SO 135 -0,2 C 1,3 C
17.11.2012 02:21 1,3 C 90 % 1017,8 hPa 0,0 l/m 2,5 km/h (1 Bft) S-SO 157 -0,2 C 1,3 C
17.11.2012 02:26 1,3 C 90 % 1017,6 hPa 0,0 l/m 5,0 km/h (1 Bft) SO 135 -0,2 C -0,1 C
17.11.2012 02:31 1,3 C 90 % 1017,6 hPa 0,0 l/m 0,0 km/h (0 Bft) SO 135 -0,2 C 1,3 C
17.11.2012 02:36 1,3 C 90 % 1017,7 hPa 0,0 l/m 4,0 km/h (1 Bft) SO 135 -0,2 C 1,3 C
17.11.2012 02:41 1,3 C 90 % 1017,6 hPa 0,0 l/m 0,0 km/h (0 Bft) O-SO 112 -0,2 C 1,3 C
17.11.2012 02:46 1,3 C 90 % 1017,5 hPa 0,0 l/m 1,1 km/h (1 Bft) S-SO 157 -0,2 C 1,3 C
17.11.2012 02:51 1,3 C 90 % 1017,5 hPa 0,0 l/m 0,0 km/h (0 Bft) SO 135 -0,2 C 1,3 C
17.11.2012 02:56 1,3 C 90 % 1017,5 hPa 0,0 l/m 1,4 km/h (1 Bft) SO 135 -0,2 C 1,3 C
17.11.2012 03:01 1,3 C 90 % 1017,5 hPa 0,0 l/m 5,0 km/h (1 Bft) SO 135 -0,2 C -0,1 C
17.11.2012 03:06 1,3 C 90 % 1017,4 hPa 0,0 l/m 2,5 km/h (1 Bft) S-SO 157 -0,2 C 1,3 C
17.11.2012 03:11 1,4 C 90 % 1017,5 hPa 0,0 l/m 2,5 km/h (1 Bft) S-SO 157 -0,1 C 1,4 C
17.11.2012 03:16 1,4 C 90 % 1017,4 hPa 0,0 l/m 3,6 km/h (1 Bft) SO 135 -0,1 C 1,4 C
17.11.2012 03:21 1,4 C 90 % 1017,3 hPa 0,0 l/m 1,4 km/h (1 Bft) S-SO 157 -0,1 C 1,4 C
17.11.2012 03:26 1,5 C 90 % 1017,2 hPa 0,0 l/m 2,9 km/h (1 Bft) S 180 0,0 C 1,5 C
17.11.2012 03:31 1,5 C 90 % 1017,1 hPa 0,0 l/m 0,0 km/h (0 Bft) S-SO 157 0,0 C 1,5 C
17.11.2012 03:36 1,5 C 90 % 1017,1 hPa 0,0 l/m 6,5 km/h (2 Bft) S-SO 157 0,0 C -0,5 C
17.11.2012 03:41 1,5 C 90 % 1016,9 hPa 0,0 l/m 3,6 km/h (1 Bft) O-SO 112 0,0 C 1,5 C
17.11.2012 03:46 1,5 C 90 % 1016,9 hPa 0,0 l/m 0,0 km/h (0 Bft) SO 135 0,0 C 1,5 C
17.11.2012 03:51 1,5 C 90 % 1016,9 hPa 0,0 l/m 3,2 km/h (1 Bft) SO 135 0,0 C 1,5 C
17.11.2012 03:56 1,6 C 90 % 1016,7 hPa 0,0 l/m 4,7 km/h (1 Bft) O-SO 112 0,1 C 0,4 C
17.11.2012 04:01 1,6 C 90 % 1016,7 hPa 0,0 l/m 5,0 km/h (1 Bft) SO 135 0,1 C 0,2 C
17.11.2012 04:06 1,6 C 90 % 1016,7 hPa 0,0 l/m 4,3 km/h (1 Bft) S-SO 157 0,1 C 1,6 C
17.11.2012 04:11 1,6 C 90 % 1016,4 hPa 0,0 l/m 6,8 km/h (2 Bft) SO 135 0,1 C -0,5 C
17.11.2012 04:16 1,6 C 90 % 1016,5 hPa 0,0 l/m 6,5 km/h (2 Bft) S-SO 157 0,1 C -0,4 C
17.11.2012 04:21 1,6 C 90 % 1016,6 hPa 0,0 l/m 7,2 km/h (2 Bft) SO 135 0,1 C -0,6 C
17.11.2012 04:26 1,6 C 90 % 1016,3 hPa 0,0 l/m 4,3 km/h (1 Bft) SO 135 0,1 C 1,6 C
17.11.2012 04:31 1,6 C 90 % 1016,3 hPa 0,0 l/m 3,6 km/h (1 Bft) SO 135 0,1 C 1,6 C
17.11.2012 04:36 1,6 C 89 % 1016,4 hPa 0,0 l/m 9,4 km/h (2 Bft) SO 135 -0,0 C -1,3 C
17.11.2012 04:41 1,6 C 89 % 1016,1 hPa 0,0 l/m 7,6 km/h (2 Bft) SO 135 -0,0 C -0,7 C
17.11.2012 04:46 1,6 C 89 % 1016,2 hPa 0,0 l/m 6,1 km/h (2 Bft) S-SO 157 -0,0 C -0,2 C
17.11.2012 04:51 1,6 C 89 % 1016,2 hPa 0,0 l/m 5,8 km/h (2 Bft) S 180 -0,0 C -0,1 C
17.11.2012 04:56 1,6 C 89 % 1016,3 hPa 0,0 l/m 7,2 km/h (2 Bft) SO 135 -0,0 C -0,6 C
17.11.2012 05:01 1,6 C 89 % 1016,1 hPa 0,0 l/m 3,6 km/h (1 Bft) SO 135 -0,0 C 1,6 C
17.11.2012 05:06 1,6 C 89 % 1016,3 hPa 0,0 l/m 4,7 km/h (1 Bft) S-SO 157 -0,0 C 0,4 C
17.11.2012 05:11 1,6 C 89 % 1016,2 hPa 0,0 l/m 7,2 km/h (2 Bft) SO 135 -0,0 C -0,6 C
17.11.2012 05:16 1,6 C 89 % 1016,2 hPa 0,0 l/m 5,8 km/h (2 Bft) S-SO 157 -0,0 C -0,1 C
17.11.2012 05:21 1,6 C 89 % 1016,0 hPa 0,0 l/m 2,9 km/h (1 Bft) SO 135 -0,0 C 1,6 C
17.11.2012 05:26 1,6 C 89 % 1016,2 hPa 0,0 l/m 5,4 km/h (1 Bft) S-SW 202 -0,0 C 0,1 C
17.11.2012 05:31 1,6 C 89 % 1016,3 hPa 0,0 l/m 3,6 km/h (1 Bft) S-SO 157 -0,0 C 1,6 C
17.11.2012 05:36 1,6 C 89 % 1016,3 hPa 0,0 l/m 4,0 km/h (1 Bft) O-SO 112 -0,0 C 1,6 C
17.11.2012 05:41 1,6 C 89 % 1016,3 hPa 0,0 l/m 5,0 km/h (1 Bft) SO 135 -0,0 C 0,2 C
17.11.2012 05:46 1,6 C 89 % 1016,2 hPa 0,0 l/m 4,0 km/h (1 Bft) S-SO 157 -0,0 C 1,6 C
17.11.2012 05:51 1,6 C 89 % 1016,1 hPa 0,0 l/m 5,8 km/h (2 Bft) S-SW 202 -0,0 C -0,1 C
17.11.2012 05:56 1,6 C 89 % 1016,2 hPa 0,0 l/m 3,2 km/h (1 Bft) S-SW 202 -0,0 C 1,6 C
17.11.2012 06:01 1,6 C 89 % 1016,1 hPa 0,0 l/m 6,5 km/h (2 Bft) S-SO 157 -0,0 C -0,4 C
17.11.2012 06:06 1,6 C 89 % 1016,0 hPa 0,0 l/m 3,6 km/h (1 Bft) S-SO 157 -0,0 C 1,6 C
17.11.2012 06:11 1,6 C 89 % 1015,9 hPa 0,0 l/m 5,0 km/h (1 Bft) SO 135 -0,0 C 0,2 C
17.11.2012 06:16 1,6 C 89 % 1015,9 hPa 0,0 l/m 3,2 km/h (1 Bft) S 180 -0,0 C 1,6 C
17.11.2012 06:21 1,6 C 89 % 1016,0 hPa 0,0 l/m 6,1 km/h (2 Bft) S 180 -0,0 C -0,2 C
17.11.2012 06:26 1,6 C 89 % 1016,1 hPa 0,0 l/m 4,0 km/h (1 Bft) S 180 -0,0 C 1,6 C
17.11.2012 06:31 1,6 C 89 % 1016,2 hPa 0,0 l/m 2,5 km/h (1 Bft) SW 225 -0,0 C 1,6 C
17.11.2012 06:36 1,6 C 89 % 1016,3 hPa 0,0 l/m 5,0 km/h (1 Bft) S-SO 157 -0,0 C 0,2 C
17.11.2012 06:41 1,6 C 89 % 1016,3 hPa 0,0 l/m 3,6 km/h (1 Bft) S-SO 157 -0,0 C 1,6 C
17.11.2012 06:46 1,6 C 89 % 1016,1 hPa 0,0 l/m 2,2 km/h (1 Bft) S-SO 157 -0,0 C 1,6 C
17.11.2012 06:51 1,6 C 89 % 1016,1 hPa 0,0 l/m 2,2 km/h (1 Bft) S-SW 202 -0,0 C 1,6 C
17.11.2012 06:56 1,6 C 89 % 1016,0 hPa 0,0 l/m 2,9 km/h (1 Bft) SO 135 -0,0 C 1,6 C
17.11.2012 07:01 1,6 C 89 % 1016,1 hPa 0,0 l/m 9,7 km/h (2 Bft) S 180 -0,0 C -1,3 C
17.11.2012 07:06 1,5 C 89 % 1016,1 hPa 0,0 l/m 6,8 km/h (2 Bft) S-SO 157 -0,1 C -0,6 C
17.11.2012 07:11 1,6 C 89 % 1016,1 hPa 0,0 l/m 3,2 km/h (1 Bft) SO 135 -0,0 C 1,6 C
17.11.2012 07:16 1,6 C 89 % 1016,1 hPa 0,0 l/m 6,8 km/h (2 Bft) SO 135 -0,0 C -0,5 C
17.11.2012 07:21 1,6 C 89 % 1016,0 hPa 0,0 l/m 2,5 km/h (1 Bft) S 180 -0,0 C 1,6 C
17.11.2012 07:26 1,5 C 89 % 1016,0 hPa 0,0 l/m 4,0 km/h (1 Bft) S-SO 157 -0,1 C 1,5 C
17.11.2012 07:31 1,6 C 89 % 1016,0 hPa 0,0 l/m 0,0 km/h (0 Bft) S-SO 157 -0,0 C 1,6 C
17.11.2012 07:36 1,5 C 89 % 1016,2 hPa 0,0 l/m 5,0 km/h (1 Bft) S-SO 157 -0,1 C 0,1 C
17.11.2012 07:41 1,5 C 89 % 1016,3 hPa 0,0 l/m 2,5 km/h (1 Bft) S-SO 157 -0,1 C 1,5 C
17.11.2012 07:46 1,5 C 89 % 1016,2 hPa 0,0 l/m 2,5 km/h (1 Bft) S-SO 157 -0,1 C 1,5 C
17.11.2012 07:51 1,4 C 89 % 1016,3 hPa 0,0 l/m 4,0 km/h (1 Bft) S 180 -0,2 C 1,4 C
17.11.2012 07:56 1,4 C 89 % 1016,2 hPa 0,0 l/m 5,0 km/h (1 Bft) S 180 -0,2 C -0,0 C
17.11.2012 08:01 1,5 C 89 % 1016,3 hPa 0,0 l/m 6,5 km/h (2 Bft) S-SW 202 -0,1 C -0,5 C
17.11.2012 08:06 1,5 C 89 % 1016,3 hPa 0,0 l/m 1,4 km/h (1 Bft) S-SO 157 -0,1 C 1,5 C
17.11.2012 08:11 1,5 C 89 % 1016,2 hPa 0,0 l/m 5,4 km/h (1 Bft) SO 135 -0,1 C -0,1 C
17.11.2012 08:16 1,4 C 89 % 1016,2 hPa 0,0 l/m 7,6 km/h (2 Bft) S 180 -0,2 C -1,0 C
17.11.2012 08:21 1,4 C 89 % 1016,3 hPa 0,0 l/m 2,5 km/h (1 Bft) S-SW 202 -0,2 C 1,4 C
17.11.2012 08:26 1,4 C 88 % 1016,3 hPa 0,0 l/m 5,0 km/h (1 Bft) SO 135 -0,4 C -0,0 C
17.11.2012 08:31 1,4 C 88 % 1016,2 hPa 0,0 l/m 6,1 km/h (2 Bft) S-SO 157 -0,4 C -0,5 C
17.11.2012 08:36 1,3 C 88 % 1016,0 hPa 0,0 l/m 8,3 km/h (2 Bft) SO 135 -0,5 C -1,3 C
17.11.2012 08:41 1,3 C 88 % 1016,0 hPa 0,0 l/m 2,9 km/h (1 Bft) SO 135 -0,5 C 1,3 C
17.11.2012 08:46 1,3 C 88 % 1015,7 hPa 0,0 l/m 3,2 km/h (1 Bft) SO 135 -0,5 C 1,3 C
17.11.2012 08:51 1,3 C 88 % 1015,7 hPa 0,0 l/m 1,8 km/h (1 Bft) S-SO 157 -0,5 C 1,3 C
17.11.2012 08:56 1,4 C 88 % 1015,7 hPa 0,0 l/m 7,6 km/h (2 Bft) S 180 -0,4 C -1,0 C
17.11.2012 09:01 1,4 C 88 % 1015,7 hPa 0,0 l/m 3,2 km/h (1 Bft) S-SO 157 -0,4 C 1,4 C
17.11.2012 09:06 1,3 C 88 % 1015,6 hPa 0,0 l/m 4,0 km/h (1 Bft) SO 135 -0,5 C 1,3 C
17.11.2012 09:11 1,3 C 88 % 1015,5 hPa 0,0 l/m 9,7 km/h (2 Bft) SO 135 -0,5 C -1,7 C
17.11.2012 09:16 1,3 C 88 % 1015,4 hPa 0,0 l/m 8,3 km/h (2 Bft) S 180 -0,5 C -1,3 C
17.11.2012 09:21 1,3 C 88 % 1015,5 hPa 0,0 l/m 9,7 km/h (2 Bft) S 180 -0,5 C -1,7 C
17.11.2012 09:26 1,3 C 88 % 1015,4 hPa 0,0 l/m 12,2 km/h (2 Bft) S-SO 157 -0,5 C -2,3 C
17.11.2012 09:31 1,4 C 88 % 1015,3 hPa 0,0 l/m 7,6 km/h (2 Bft) S-SO 157 -0,4 C -1,0 C
17.11.2012 09:36 1,3 C 88 % 1015,3 hPa 0,0 l/m 5,4 km/h (1 Bft) S-SO 157 -0,5 C -0,3 C
17.11.2012 09:41 1,3 C 87 % 1015,1 hPa 0,0 l/m 13,3 km/h (3 Bft) S 180 -0,6 C -2,5 C
17.11.2012 09:46 1,3 C 87 % 1015,3 hPa 0,0 l/m 5,0 km/h (1 Bft) O-SO 112 -0,6 C -0,1 C
17.11.2012 09:51 1,3 C 87 % 1015,4 hPa 0,0 l/m 5,0 km/h (1 Bft) O-SO 112 -0,6 C -0,1 C
17.11.2012 09:56 1,4 C 88 % 1015,4 hPa 0,0 l/m 5,8 km/h (2 Bft) S-SO 157 -0,4 C -0,3 C
17.11.2012 10:01 1,5 C 88 % 1015,4 hPa 0,0 l/m 11,9 km/h (2 Bft) S-SO 157 -0,3 C -2,0 C
17.11.2012 10:06 1,5 C 88 % 1015,4 hPa 0,0 l/m 4,7 km/h (1 Bft) S-SO 157 -0,3 C 0,2 C
17.11.2012 10:11 1,5 C 88 % 1015,3 hPa 0,0 l/m 4,0 km/h (1 Bft) S-SO 157 -0,3 C 1,5 C
17.11.2012 10:16 1,6 C 88 % 1015,1 hPa 0,0 l/m 2,2 km/h (1 Bft) W 270 -0,2 C 1,6 C
17.11.2012 10:21 1,6 C 88 % 1015,1 hPa 0,0 l/m 1,4 km/h (1 Bft) S 180 -0,2 C 1,6 C
17.11.2012 10:26 1,8 C 88 % 1015,1 hPa 0,0 l/m 6,1 km/h (2 Bft) S-SO 157 0,0 C 0,0 C
17.11.2012 10:31 1,8 C 87 % 1015,3 hPa 0,0 l/m 10,1 km/h (2 Bft) SO 135 -0,1 C -1,2 C
17.11.2012 10:36 1,8 C 87 % 1015,4 hPa 0,0 l/m 8,3 km/h (2 Bft) O-SO 112 -0,1 C -0,7 C
17.11.2012 10:41 1,8 C 87 % 1015,3 hPa 0,0 l/m 5,8 km/h (2 Bft) S 180 -0,1 C 0,1 C
17.11.2012 10:46 1,8 C 87 % 1015,2 hPa 0,0 l/m 1,8 km/h (1 Bft) SO 135 -0,1 C 1,8 C
17.11.2012 10:51 1,8 C 87 % 1015,1 hPa 0,0 l/m 3,2 km/h (1 Bft) SO 135 -0,1 C 1,8 C
17.11.2012 10:56 1,8 C 87 % 1015,1 hPa 0,0 l/m 2,9 km/h (1 Bft) O-SO 112 -0,1 C 1,8 C
17.11.2012 11:01 1,9 C 87 % 1015,1 hPa 0,0 l/m 2,5 km/h (1 Bft) S 180 -0,0 C 1,9 C
17.11.2012 11:06 1,9 C 87 % 1015,0 hPa 0,0 l/m 5,4 km/h (1 Bft) S-SW 202 -0,0 C 0,4 C
17.11.2012 11:11 2,1 C 87 % 1014,9 hPa 0,0 l/m 7,9 km/h (2 Bft) O 90 0,2 C -0,2 C
17.11.2012 11:16 2,1 C 86 % 1014,9 hPa 0,0 l/m 13,0 km/h (3 Bft) S-SO 157 0,0 C -1,5 C
17.11.2012 11:21 2,2 C 86 % 1014,7 hPa 0,0 l/m 7,6 km/h (2 Bft) S-SO 157 0,1 C -0,0 C
17.11.2012 11:26 2,3 C 86 % 1014,6 hPa 0,0 l/m 4,7 km/h (1 Bft) S-SO 157 0,2 C 1,2 C
17.11.2012 11:31 2,4 C 86 % 1014,4 hPa 0,0 l/m 4,7 km/h (1 Bft) SO 135 0,3 C 1,3 C
17.11.2012 11:36 2,5 C 86 % 1014,6 hPa 0,0 l/m 0,0 km/h (0 Bft) SO 135 0,4 C 2,5 C
17.11.2012 11:41 2,6 C 86 % 1014,4 hPa 0,0 l/m 8,3 km/h (2 Bft) S-SO 157 0,5 C 0,2 C
17.11.2012 11:46 2,7 C 86 % 1014,3 hPa 0,0 l/m 3,2 km/h (1 Bft) S 180 0,6 C 2,7 C
17.11.2012 11:51 2,8 C 86 % 1014,1 hPa 0,0 l/m 0,0 km/h (0 Bft) S-SO 157 0,7 C 2,8 C
17.11.2012 11:56 2,9 C 85 % 1014,1 hPa 0,0 l/m 10,1 km/h (2 Bft) S-SO 157 0,6 C 0,1 C
17.11.2012 12:01 2,9 C 85 % 1014,1 hPa 0,0 l/m 9,4 km/h (2 Bft) S-SO 157 0,6 C 0,3 C
17.11.2012 12:06 3,0 C 85 % 1013,9 hPa 0,0 l/m 6,1 km/h (2 Bft) SO 135 0,7 C 1,4 C
17.11.2012 12:11 3,1 C 85 % 1013,9 hPa 0,0 l/m 3,2 km/h (1 Bft) SO 135 0,8 C 3,1 C
17.11.2012 12:16 3,3 C 85 % 1013,8 hPa 0,0 l/m 5,8 km/h (2 Bft) S 180 1,0 C 1,8 C
17.11.2012 12:21 3,3 C 84 % 1013,9 hPa 0,0 l/m 9,7 km/h (2 Bft) S 180 0,9 C 0,7 C
17.11.2012 12:26 3,4 C 84 % 1013,7 hPa 0,0 l/m 3,2 km/h (1 Bft) SO 135 1,0 C 3,4 C
17.11.2012 12:31 3,6 C 84 % 1013,6 hPa 0,0 l/m 4,7 km/h (1 Bft) SO 135 1,2 C 2,6 C
17.11.2012 12:36 3,6 C 84 % 1013,6 hPa 0,0 l/m 13,0 km/h (3 Bft) SO 135 1,2 C 0,4 C
17.11.2012 12:41 3,6 C 83 % 1013,5 hPa 0,0 l/m 6,1 km/h (2 Bft) SO 135 1,0 C 2,1 C
17.11.2012 12:46 3,6 C 83 % 1013,5 hPa 0,0 l/m 2,9 km/h (1 Bft) SO 135 1,0 C 3,6 C
17.11.2012 12:51 3,6 C 83 % 1013,5 hPa 0,0 l/m 2,9 km/h (1 Bft) SO 135 1,0 C 3,6 C
17.11.2012 12:56 3,6 C 83 % 1013,4 hPa 0,0 l/m 1,8 km/h (1 Bft) O-SO 112 1,0 C 3,6 C
17.11.2012 13:01 3,8 C 84 % 1013,4 hPa 0,0 l/m 0,0 km/h (0 Bft) S-SW 202 1,4 C 3,8 C
17.11.2012 13:06 4,1 C 84 % 1013,5 hPa 0,0 l/m 0,0 km/h (0 Bft) S 180 1,6 C 4,1 C
17.11.2012 13:11 4,3 C 84 % 1013,4 hPa 0,0 l/m 4,7 km/h (1 Bft) S-SO 157 1,8 C 3,4 C
17.11.2012 13:16 4,4 C 83 % 1013,3 hPa 0,0 l/m 4,0 km/h (1 Bft) S-SO 157 1,8 C 4,4 C
17.11.2012 13:21 4,3 C 82 % 1013,5 hPa 0,0 l/m 4,0 km/h (1 Bft) S-SO 157 1,5 C 4,3 C
17.11.2012 13:26 4,2 C 82 % 1013,4 hPa 0,0 l/m 4,3 km/h (1 Bft) S-SW 202 1,4 C 4,2 C
17.11.2012 13:31 4,2 C 82 % 1013,3 hPa 0,0 l/m 0,0 km/h (0 Bft) S-SW 202 1,4 C 4,2 C
17.11.2012 13:36 4,4 C 83 % 1013,3 hPa 0,0 l/m 3,2 km/h (1 Bft) S-SO 157 1,8 C 4,4 C
17.11.2012 13:41 4,6 C 83 % 1013,4 hPa 0,0 l/m 5,4 km/h (1 Bft) S-SO 157 2,0 C 3,5 C
17.11.2012 13:46 4,8 C 82 % 1013,3 hPa 0,0 l/m 5,8 km/h (2 Bft) SW 225 2,0 C 3,6 C
17.11.2012 13:51 5,0 C 82 % 1013,1 hPa 0,0 l/m 3,6 km/h (1 Bft) O-SO 112 2,2 C 5,0 C
17.11.2012 13:56 5,1 C 81 % 1013,1 hPa 0,0 l/m 2,5 km/h (1 Bft) S-SW 202 2,1 C 5,1 C
17.11.2012 14:01 5,2 C 81 % 1013,0 hPa 0,0 l/m 7,9 km/h (2 Bft) S-SW 202 2,2 C 3,4 C
17.11.2012 14:06 5,3 C 80 % 1012,9 hPa 0,0 l/m 4,0 km/h (1 Bft) S-SW 202 2,1 C 5,3 C
17.11.2012 14:11 5,1 C 80 % 1012,9 hPa 0,0 l/m 1,4 km/h (1 Bft) S 180 1,9 C 5,1 C
17.11.2012 14:16 5,0 C 80 % 1012,8 hPa 0,0 l/m 4,0 km/h (1 Bft) S-SO 157 1,8 C 5,0 C
17.11.2012 14:21 4,9 C 80 % 1012,9 hPa 0,0 l/m 0,0 km/h (0 Bft) S-SO 157 1,7 C 4,9 C
17.11.2012 14:26 4,9 C 80 % 1012,8 hPa 0,0 l/m 8,6 km/h (2 Bft) S-SO 157 1,7 C 2,9 C
17.11.2012 14:31 4,9 C 80 % 1012,7 hPa 0,0 l/m 2,5 km/h (1 Bft) S 180 1,7 C 4,9 C
17.11.2012 14:36 5,0 C 80 % 1012,7 hPa 0,0 l/m 2,9 km/h (1 Bft) S 180 1,8 C 5,0 C
17.11.2012 14:41 5,0 C 80 % 1012,7 hPa 0,0 l/m 4,7 km/h (1 Bft) S 180 1,8 C 4,2 C
17.11.2012 14:46 4,9 C 80 % 1012,7 hPa 0,0 l/m 4,3 km/h (1 Bft) S 180 1,7 C 4,9 C
17.11.2012 14:51 4,9 C 80 % 1012,6 hPa 0,0 l/m 1,8 km/h (1 Bft) SO 135 1,7 C 4,9 C
17.11.2012 14:56 4,7 C 80 % 1012,6 hPa 0,0 l/m 2,9 km/h (1 Bft) SO 135 1,6 C 4,7 C
17.11.2012 15:01 4,5 C 80 % 1012,7 hPa 0,0 l/m 3,2 km/h (1 Bft) S-SO 157 1,4 C 4,5 C
17.11.2012 15:06 4,4 C 80 % 1012,5 hPa 0,0 l/m 4,0 km/h (1 Bft) SO 135 1,3 C 4,4 C
17.11.2012 15:11 4,3 C 80 % 1012,4 hPa 0,0 l/m 5,8 km/h (2 Bft) S-SO 157 1,2 C 3,0 C
17.11.2012 15:16 4,2 C 80 % 1012,4 hPa 0,0 l/m 5,8 km/h (2 Bft) SO 135 1,1 C 2,9 C
17.11.2012 15:21 4,1 C 81 % 1012,4 hPa 0,0 l/m 2,5 km/h (1 Bft) S-SO 157 1,1 C 4,1 C
17.11.2012 15:26 3,9 C 81 % 1012,4 hPa 0,0 l/m 3,6 km/h (1 Bft) S-SO 157 0,9 C 3,9 C
17.11.2012 15:31 3,9 C 81 % 1012,4 hPa 0,0 l/m 2,5 km/h (1 Bft) S-SW 202 0,9 C 3,9 C
17.11.2012 15:36 3,7 C 82 % 1012,4 hPa 0,0 l/m 5,8 km/h (2 Bft) S 180 0,9 C 2,3 C
17.11.2012 15:41 3,6 C 82 % 1012,4 hPa 0,0 l/m 4,3 km/h (1 Bft) S-SO 157 0,8 C 3,6 C
17.11.2012 15:46 3,4 C 82 % 1012,2 hPa 0,0 l/m 3,2 km/h (1 Bft) S 180 0,6 C 3,4 C
17.11.2012 15:51 3,2 C 82 % 1012,1 hPa 0,0 l/m 4,3 km/h (1 Bft) S-SO 157 0,4 C 3,2 C
17.11.2012 15:56 3,1 C 83 % 1012,1 hPa 0,0 l/m 2,2 km/h (1 Bft) S 180 0,5 C 3,1 C
17.11.2012 16:01 2,9 C 83 % 1012,1 hPa 0,0 l/m 0,0 km/h (0 Bft) S 180 0,3 C 2,9 C
17.11.2012 16:06 2,7 C 83 % 1012,1 hPa 0,0 l/m 0,0 km/h (0 Bft) S 180 0,1 C 2,7 C
17.11.2012 16:11 2,5 C 83 % 1012,1 hPa 0,0 l/m 3,2 km/h (1 Bft) S-SO 157 -0,1 C 2,5 C
17.11.2012 16:16 2,4 C 84 % 1012,1 hPa 0,0 l/m 1,4 km/h (1 Bft) S-SO 157 -0,0 C 2,4 C
17.11.2012 16:21 2,2 C 84 % 1012,0 hPa 0,0 l/m 1,4 km/h (1 Bft) SO 135 -0,2 C 2,2 C
17.11.2012 16:26 2,1 C 84 % 1012,0 hPa 0,0 l/m 0,0 km/h (0 Bft) SO 135 -0,3 C 2,1 C
17.11.2012 16:31 1,9 C 84 % 1011,9 hPa 0,0 l/m 2,2 km/h (1 Bft) O-SO 112 -0,5 C 1,9 C
17.11.2012 16:36 1,8 C 85 % 1011,9 hPa 0,0 l/m 1,4 km/h (1 Bft) O-SO 112 -0,4 C 1,8 C
17.11.2012 16:41 1,6 C 85 % 1012,0 hPa 0,0 l/m 0,0 km/h (0 Bft) SO 135 -0,6 C 1,6 C
17.11.2012 16:46 1,5 C 85 % 1012,0 hPa 0,0 l/m 4,0 km/h (1 Bft) O-SO 112 -0,7 C 1,5 C
17.11.2012 16:51 1,4 C 86 % 1011,9 hPa 0,0 l/m 0,0 km/h (0 Bft) SO 135 -0,7 C 1,4 C
17.11.2012 16:56 1,3 C 86 % 1012,0 hPa 0,0 l/m 2,5 km/h (1 Bft) SO 135 -0,8 C 1,3 C
17.11.2012 17:01 1,3 C 87 % 1012,0 hPa 0,0 l/m 4,0 km/h (1 Bft) O-SO 112 -0,6 C 1,3 C
17.11.2012 17:06 1,3 C 87 % 1011,8 hPa 0,0 l/m 9,0 km/h (2 Bft) SO 135 -0,6 C -1,5 C
17.11.2012 17:11 1,1 C 88 % 1012,0 hPa 0,0 l/m 4,3 km/h (1 Bft) O-SO 112 -0,7 C 1,1 C
17.11.2012 17:16 1,1 C 88 % 1011,9 hPa 0,0 l/m 2,9 km/h (1 Bft) SO 135 -0,7 C 1,1 C
17.11.2012 17:21 1,0 C 88 % 1011,8 hPa 0,0 l/m 2,2 km/h (1 Bft) O-SO 112 -0,8 C 1,0 C
17.11.2012 17:26 0,9 C 89 % 1011,8 hPa 0,0 l/m 5,4 km/h (1 Bft) SO 135 -0,7 C -0,7 C
17.11.2012 17:31 0,9 C 89 % 1011,7 hPa 0,0 l/m 13,3 km/h (3 Bft) S-SO 157 -0,7 C -3,0 C
17.11.2012 17:36 0,9 C 89 % 1011,9 hPa 0,0 l/m 7,2 km/h (2 Bft) SO 135 -0,7 C -1,4 C
17.11.2012 17:41 0,9 C 90 % 1011,7 hPa 0,0 l/m 10,1 km/h (2 Bft) SO 135 -0,6 C -2,3 C
17.11.2012 17:46 0,9 C 91 % 1011,7 hPa 0,0 l/m 15,8 km/h (3 Bft) SO 135 -0,4 C -3,4 C
17.11.2012 17:51 0,9 C 91 % 1011,7 hPa 0,0 l/m 7,2 km/h (2 Bft) O-SO 112 -0,4 C -1,4 C
17.11.2012 17:56 0,9 C 91 % 1011,6 hPa 0,0 l/m 6,5 km/h (2 Bft) O-SO 112 -0,4 C -1,2 C
17.11.2012 18:01 0,9 C 91 % 1011,7 hPa 0,0 l/m 8,6 km/h (2 Bft) O-SO 112 -0,4 C -1,9 C
17.11.2012 18:06 0,9 C 91 % 1011,7 hPa 0,0 l/m 6,5 km/h (2 Bft) SO 135 -0,4 C -1,2 C
17.11.2012 18:11 0,9 C 91 % 1011,7 hPa 0,0 l/m 9,4 km/h (2 Bft) S-SO 157 -0,4 C -2,1 C
17.11.2012 18:16 0,9 C 92 % 1011,8 hPa 0,0 l/m 8,3 km/h (2 Bft) S-SO 157 -0,2 C -1,8 C
17.11.2012 18:21 1,0 C 92 % 1011,8 hPa 0,0 l/m 6,8 km/h (2 Bft) S-SO 157 -0,2 C -1,2 C
17.11.2012 18:26 1,0 C 92 % 1011,5 hPa 0,0 l/m 11,2 km/h (2 Bft) SO 135 -0,2 C -2,4 C
17.11.2012 18:31 1,0 C 92 % 1011,6 hPa 0,0 l/m 3,6 km/h (1 Bft) O-SO 112 -0,2 C 1,0 C
17.11.2012 18:36 1,1 C 92 % 1011,6 hPa 0,0 l/m 4,7 km/h (1 Bft) S-SO 157 -0,1 C -0,2 C
17.11.2012 18:41 1,1 C 92 % 1011,6 hPa 0,0 l/m 3,6 km/h (1 Bft) S-SO 157 -0,1 C 1,1 C
17.11.2012 18:46 1,1 C 92 % 1011,6 hPa 0,0 l/m 4,0 km/h (1 Bft) O-SO 112 -0,1 C 1,1 C
17.11.2012 18:51 1,1 C 92 % 1011,6 hPa 0,0 l/m 7,6 km/h (2 Bft) SO 135 -0,1 C -1,3 C
17.11.2012 18:56 1,2 C 93 % 1011,5 hPa 0,0 l/m 14,0 km/h (3 Bft) SO 135 0,2 C -2,8 C
17.11.2012 19:01 1,2 C 93 % 1011,4 hPa 0,0 l/m 13,0 km/h (3 Bft) SO 135 0,2 C -2,6 C
17.11.2012 19:06 1,2 C 93 % 1011,5 hPa 0,0 l/m 4,3 km/h (1 Bft) O-SO 112 0,2 C 1,2 C
17.11.2012 19:11 1,2 C 93 % 1011,5 hPa 0,0 l/m 7,2 km/h (2 Bft) S-SO 157 0,2 C -1,1 C
17.11.2012 19:16 1,3 C 93 % 1011,3 hPa 0,0 l/m 10,1 km/h (2 Bft) SO 135 0,3 C -1,8 C
17.11.2012 19:21 1,3 C 93 % 1011,4 hPa 0,0 l/m 4,0 km/h (1 Bft) O-SO 112 0,3 C 1,3 C
17.11.2012 19:26 1,3 C 93 % 1011,3 hPa 0,0 l/m 7,9 km/h (2 Bft) S-SO 157 0,3 C -1,2 C
17.11.2012 19:31 1,3 C 93 % 1011,4 hPa 0,0 l/m 12,2 km/h (2 Bft) SO 135 0,3 C -2,3 C
17.11.2012 19:36 1,3 C 93 % 1011,5 hPa 0,0 l/m 7,6 km/h (2 Bft) SO 135 0,3 C -1,1 C
17.11.2012 19:41 1,3 C 93 % 1011,5 hPa 0,0 l/m 4,0 km/h (1 Bft) S 180 0,3 C 1,3 C
17.11.2012 19:46 1,3 C 93 % 1011,6 hPa 0,0 l/m 3,2 km/h (1 Bft) SO 135 0,3 C 1,3 C
17.11.2012 19:51 1,4 C 93 % 1011,5 hPa 0,0 l/m 7,9 km/h (2 Bft) S-SO 157 0,4 C -1,1 C
17.11.2012 19:56 1,4 C 93 % 1011,4 hPa 0,0 l/m 6,8 km/h (2 Bft) SO 135 0,4 C -0,7 C
17.11.2012 20:01 1,5 C 93 % 1011,5 hPa 0,0 l/m 4,3 km/h (1 Bft) SO 135 0,5 C 1,5 C
17.11.2012 20:06 1,5 C 93 % 1011,5 hPa 0,0 l/m 2,2 km/h (1 Bft) O-SO 112 0,5 C 1,5 C
17.11.2012 20:11 1,5 C 93 % 1011,6 hPa 0,0 l/m 6,5 km/h (2 Bft) SO 135 0,5 C -0,5 C
17.11.2012 20:16 1,5 C 93 % 1011,6 hPa 0,0 l/m 7,2 km/h (2 Bft) SO 135 0,5 C -0,7 C
17.11.2012 20:21 1,5 C 93 % 1011,6 hPa 0,0 l/m 0,0 km/h (0 Bft) SO 135 0,5 C 1,5 C
17.11.2012 20:26 1,5 C 93 % 1011,6 hPa 0,0 l/m 6,8 km/h (2 Bft) O 90 0,5 C -0,6 C
17.11.2012 20:31 1,5 C 93 % 1011,5 hPa 0,0 l/m 2,2 km/h (1 Bft) O-SO 112 0,5 C 1,5 C
17.11.2012 20:36 1,5 C 93 % 1011,5 hPa 0,0 l/m 2,9 km/h (1 Bft) S-SO 157 0,5 C 1,5 C
17.11.2012 20:41 1,5 C 93 % 1011,5 hPa 0,0 l/m 2,5 km/h (1 Bft) O-SO 112 0,5 C 1,5 C
17.11.2012 20:46 1,5 C 93 % 1011,4 hPa 0,0 l/m 1,4 km/h (1 Bft) O-SO 112 0,5 C 1,5 C
17.11.2012 20:51 1,6 C 93 % 1011,4 hPa 0,0 l/m 10,1 km/h (2 Bft) SO 135 0,6 C -1,4 C
17.11.2012 20:56 1,6 C 93 % 1011,4 hPa 0,0 l/m 1,1 km/h (1 Bft) S-SO 157 0,6 C 1,6 C
17.11.2012 21:01 1,6 C 93 % 1011,5 hPa 0,0 l/m 4,3 km/h (1 Bft) SO 135 0,6 C 1,6 C
17.11.2012 21:06 1,6 C 93 % 1011,6 hPa 0,0 l/m 4,0 km/h (1 Bft) S-SO 157 0,6 C 1,6 C
17.11.2012 21:11 1,6 C 93 % 1011,6 hPa 0,0 l/m 2,2 km/h (1 Bft) S-SO 157 0,6 C 1,6 C
17.11.2012 21:16 1,6 C 93 % 1011,6 hPa 0,0 l/m 0,0 km/h (0 Bft) O-SO 112 0,6 C 1,6 C
17.11.2012 21:21 1,6 C 93 % 1011,5 hPa 0,0 l/m 2,9 km/h (1 Bft) SO 135 0,6 C 1,6 C
17.11.2012 21:26 1,6 C 93 % 1011,6 hPa 0,0 l/m 8,3 km/h (2 Bft) S 180 0,6 C -0,9 C
17.11.2012 21:31 1,6 C 93 % 1011,5 hPa 0,0 l/m 6,1 km/h (2 Bft) S-SO 157 0,6 C -0,2 C
17.11.2012 21:36 1,6 C 93 % 1011,5 hPa 0,0 l/m 3,6 km/h (1 Bft) S-SO 157 0,6 C 1,6 C
17.11.2012 21:41 1,6 C 93 % 1011,5 hPa 0,0 l/m 4,7 km/h (1 Bft) SO 135 0,6 C 0,4 C
17.11.2012 21:46 1,6 C 93 % 1011,5 hPa 0,0 l/m 4,0 km/h (1 Bft) O-SO 112 0,6 C 1,6 C
17.11.2012 21:51 1,6 C 93 % 1011,4 hPa 0,0 l/m 7,2 km/h (2 Bft) SO 135 0,6 C -0,6 C
17.11.2012 21:56 1,6 C 93 % 1011,5 hPa 0,0 l/m 3,2 km/h (1 Bft) SO 135 0,6 C 1,6 C
17.11.2012 22:01 1,5 C 93 % 1011,5 hPa 0,0 l/m 7,6 km/h (2 Bft) S-SO 157 0,5 C -0,9 C
17.11.2012 22:06 1,5 C 93 % 1011,6 hPa 0,0 l/m 2,5 km/h (1 Bft) S-SO 157 0,5 C 1,5 C
17.11.2012 22:11 1,5 C 93 % 1011,5 hPa 0,0 l/m 3,2 km/h (1 Bft) S-SO 157 0,5 C 1,5 C
17.11.2012 22:16 1,5 C 93 % 1011,5 hPa 0,0 l/m 2,9 km/h (1 Bft) S-SO 157 0,5 C 1,5 C
17.11.2012 22:21 1,5 C 93 % 1011,5 hPa 0,0 l/m 2,2 km/h (1 Bft) S-SO 157 0,5 C 1,5 C
17.11.2012 22:26 1,5 C 93 % 1011,5 hPa 0,0 l/m 7,9 km/h (2 Bft) SO 135 0,5 C -0,9 C
17.11.2012 22:31 1,4 C 93 % 1011,6 hPa 0,0 l/m 0,0 km/h (0 Bft) S-SO 157 0,4 C 1,4 C
17.11.2012 22:36 1,4 C 93 % 1011,4 hPa 0,0 l/m 2,2 km/h (1 Bft) S 180 0,4 C 1,4 C
17.11.2012 22:41 1,4 C 93 % 1011,4 hPa 0,0 l/m 3,6 km/h (1 Bft) S 180 0,4 C 1,4 C
17.11.2012 22:46 1,4 C 93 % 1011,4 hPa 0,0 l/m 2,5 km/h (1 Bft) S 180 0,4 C 1,4 C
17.11.2012 22:51 1,4 C 93 % 1011,6 hPa 0,0 l/m 4,0 km/h (1 Bft) S-SO 157 0,4 C 1,4 C
17.11.2012 22:56 1,4 C 93 % 1011,3 hPa 0,0 l/m 2,5 km/h (1 Bft) S-SO 157 0,4 C 1,4 C
17.11.2012 23:01 1,3 C 93 % 1011,4 hPa 0,0 l/m 0,0 km/h (0 Bft) S-SW 202 0,3 C 1,3 C
17.11.2012 23:06 1,3 C 93 % 1011,3 hPa 0,0 l/m 4,3 km/h (1 Bft) S 180 0,3 C 1,3 C
17.11.2012 23:11 1,3 C 93 % 1011,4 hPa 0,0 l/m 0,0 km/h (0 Bft) S-SO 157 0,3 C 1,3 C
17.11.2012 23:16 1,3 C 93 % 1011,3 hPa 0,0 l/m 2,9 km/h (1 Bft) S-SO 157 0,3 C 1,3 C
17.11.2012 23:21 1,3 C 93 % 1011,5 hPa 0,0 l/m 1,1 km/h (1 Bft) S-SO 157 0,3 C 1,3 C
17.11.2012 23:26 1,3 C 93 % 1011,5 hPa 0,0 l/m 2,9 km/h (1 Bft) S-SO 157 0,3 C 1,3 C
17.11.2012 23:31 1,3 C 93 % 1011,5 hPa 0,0 l/m 0,0 km/h (0 Bft) S-SO 157 0,3 C 1,3 C
17.11.2012 23:36 1,3 C 93 % 1011,5 hPa 0,0 l/m 0,0 km/h (0 Bft) S-SO 157 0,3 C 1,3 C
17.11.2012 23:41 1,3 C 93 % 1011,6 hPa 0,0 l/m 3,6 km/h (1 Bft) SO 135 0,3 C 1,3 C
17.11.2012 23:46 1,3 C 93 % 1011,6 hPa 0,0 l/m 0,0 km/h (0 Bft) S-SW 202 0,3 C 1,3 C
17.11.2012 23:51 1,3 C 93 % 1011,5 hPa 0,0 l/m 0,0 km/h (0 Bft) S 180 0,3 C 1,3 C
17.11.2012 23:56 1,3 C 93 % 1011,6 hPa 0,0 l/m 0,0 km/h (0 Bft) SO 135 0,3 C 1,3 C
_ Min-Zeit 17:26 14:06 19:16 - 00:26 - - 16:56 17:46
Minimum _ 0,9 C 80 % 1011,3 hPa - 0,0 km/h (0 Bft) - - -0,8 C -3,4 C
_ Max-Zeit 14:06 18:56 00:01 00:01 17:46 - - 14:01 14:06
Maximum _ 5,3 C 93 % 1018,9 hPa 0,0 l/m 15,8 km/h
SO (3 Bft)
- - 2,2 C 5,3 C
Durchschnitt _ 1,9 C 88 % 1014,3 hPa #0,0 l/m 4,3 km/h (1 Bft) SO - 0,2 C 1,1 C
(c) by David Heller